Temperature
20 21 21 21 22 22 21 22 21 21 21 22 22 22 22 22 22 22 22 22 22 22 21 20 19 19 19 19 18 18 18 17 17 17 16 16 15 15 15 15 15 15 14 14
21 21 21 21 21 21 21 21 21 21 21 22 22 22 22 22 22 22 22 22 22 22 21 20 19 19 19 19 18 18 18 17 17 17 16 16 16 15 15 15 15 15 15 14
21 21 21 21 21 21 21 21 21 21 21 22 22 22 22 22 22 21 21 22 22 21 21 20 19 19 19 19 18 18 18 17 17 17 16 16 16 15 15 15 15 15 15 15
21 21 21 21 21 21 21 21 21 21 21 21 22 22 23 23 22 22 22 21 21 21 20 20 19 19 19 19 18 18 18 17 17 17 16 16 16 16 15 15 15 15 15 15
20 20 20 20 21 21 20 21 21 21 21 22 22 23 23 23 23 23 23 22 21 21 20 20 19 19 19 19 19 18 18 18 17 17 17 16 16 16 15 15 15 15 15 15
20 20 21 21 21 20 20 21 20 21 21 21 22 23 23 24 24 24 23 22 21 20 20 19 19 19 19 19 19 18 18 18 18 17 17 16 16 16 15 15 15 15 15 15
20 20 20 20 20 20 21 21 20 20 20 21 23 23 24 25 25 24 24 22 21 20 20 19 19 19 19 19 19 18 18 18 17 17 17 16 16 16 15 15 15 15 15 14
20 20 20 21 21 21 21 21 21 20 21 22 22 23 24 24 23 23 23 22 21 20 20 19 19 19 19 19 18 18 18 18 17 17 17 16 16 16 16 15 15 15 15 14
21 21 21 21 21 22 20 21 22 22 22 22 23 24 24 23 23 22 22 21 21 20 19 19 18 18 19 18 18 18 18 17 17 17 17 16 16 16 16 15 15 15 15 15
22 21 21 20 21 20 21 22 21 22 22 22 23 24 24 23 23 23 22 21 21 20 19 18 18 18 18 18 18 18 18 17 17 17 16 16 16 16 16 15 15 15 15 14
22 21 20 20 21 21 21 21 22 22 23 23 23 24 25 25 25 24 23 22 21 20 19 18 18 18 18 18 18 18 17 17 17 17 16 16 16 16 15 15 15 15 14 14
22 22 21 21 21 21 22 22 22 22 22 23 24 25 25 25 24 24 23 22 21 20 19 18 18 18 18 18 18 18 17 17 17 16 16 16 16 16 15 15 15 14 14 14
22 21 20 20 20 20 21 22 22 23 23 23 23 24 24 24 24 23 23 22 20 19 18 18 18 18 18 18 18 17 17 17 17 16 16 16 16 15 15 15 14 14 14 14
22 22 22 21 22 22 21 21 22 22 23 23 24 25 25 25 24 23 22 21 20 19 18 18 18 18 18 18 17 17 17 17 17 16 16 16 15 15 15 14 14 14 14 14
22 22 22 23 23 22 23 23 22 23 24 24 25 25 25 25 25 23 21 20 19 19 18 18 18 18 18 17 17 17 17 17 16 16 16 15 15 15 15 14 14 14 14 13
22 23 23 22 22 22 22 23 23 23 24 24 24 25 26 25 24 23 21 20 19 19 18 18 18 18 18 17 17 17 17 17 16 16 16 15 15 15 15 14 14 14 14 13
23 23 22 22 22 22 22 24 24 23 24 24 24 25 25 24 23 22 21 20 20 19 18 18 18 18 18 17 17 17 17 16 16 16 15 15 15 15 14 14 14 13 13 13
23 23 23 23 22 21 24 25 24 24 24 25 25 25 25 24 23 22 21 20 20 19 19 18 18 18 18 17 17 17 17 16 16 15 15 15 15 15 14 14 14 13 13 13
23 23 23 23 22 23 24 24 24 24 24 26 25 25 24 23 22 22 21 21 20 20 19 19 19 18 18 17 17 17 16 16 16 15 15 15 15 14 14 14 13 13 13 12
21 22 23 22 22 22 24 24 23 24 24 26 25 24 23 22 23 24 22 21 20 19 19 18 18 18 17 17 17 16 16 16 16 16 15 15 14 14 14 13 13 13 12 12
21 21 22 22 22 23 25 22 23 23 25 25 24 24 22 23 24 23 21 20 20 19 19 18 18 18 18 17 17 16 16 16 16 15 15 14 14 14 13 13 13 12 12 11
23 22 22 22 22 23 23 22 24 25 24 23 23 23 22 22 22 21 21 20 20 19 18 18 18 18 17 17 17 16 16 16 15 15 14 14 14 13 13 13 12 12 11 11
23 23 23 23 23 23 21 22 22 21 22 22 22 22 21 21 20 20 20 20 19 19 18 18 18 17 17 17 17 16 16 15 15 15 14 14 13 13 13 12 12 11 11 11
22 20 21 22 23 22 20 20 20 20 20 21 21 20 20 20 20 20 19 19 19 18 18 18 17 17 17 17 17 16 16 15 15 15 14 13 13 12 12 12 11 11 11 10
21 20 21 22 23 21 20 20 19 19 20 20 20 20 20 20 20 20 19 19 19 18 18 17 17 17 17 17 16 16 15 15 15 14 14 13 12 12 12 11 11 11 11 10
20 20 21 22 22 22 21 19 19 19 19 19 19 19 19 19 19 19 19 19 19 18 18 17 17 17 16 16 16 16 15 15 14 13 13 13 12 12 12 11 11 11 11 10
Wind_Speed
4 5 6 6 5 4 6 7 8 6 4 6 7 8 9 9 8 9 9 9 9 8 8 8 8 8 7 7 7 7 7 6 5 4 3 3 4 4 4 5 6 6 7 7
6 6 5 5 6 6 7 8 7 6 5 4 7 7 7 7 7 7 8 9 9 9 9 9 9 8 8 8 7 7 6 6 5 3 3 3 3 3 4 4 5 6 7 7
6 5 6 7 8 8 7 8 8 7 6 5 6 6 7 7 6 6 6 7 8 9 10 10 9 9 8 8 7 7 7 6 5 5 4 3 3 3 3 4 4 5 6 7
4 4 6 7 8 8 6 6 7 7 7 5 6 5 8 10 9 9 9 9 9 9 9 10 9 9 8 8 7 8 7 7 6 5 4 4 3 3 4 3 3 4 5 6
4 6 7 7 5 5 4 6 6 5 5 4 6 5 7 11 11 12 11 10 10 10 10 10 9 9 8 8 8 7 8 7 6 5 5 3 3 3 3 3 4 4 5 6
4 4 4 4 4 4 8 7 5 3 4 6 7 6 7 10 12 12 12 12 11 10 10 9 9 8 8 8 8 8 8 7 6 5 5 4 4 3 3 3 3 3 3 4
6 6 4 5 6 5 7 8 5 5 5 5 6 6 5 7 9 11 12 13 12 11 11 10 10 10 10 10 9 9 9 8 7 6 5 4 4 3 3 3 3 3 3 4
7 8 9 7 7 8 10 8 5 5 6 5 6 7 4 5 6 8 10 11 12 12 11 11 11 11 10 11 10 10 9 8 7 6 5 5 4 2 3 3 3 3 3 4
6 6 7 6 5 7 9 8 4 2 4 4 6 5 4 6 8 10 12 13 13 12 12 11 11 11 11 11 10 10 10 9 8 7 6 5 4 3 3 3 3 3 3 3
3 5 6 6 5 3 5 6 5 5 5 5 6 7 6 11 13 13 14 15 14 13 13 12 11 11 11 10 10 10 9 9 9 7 6 5 4 4 3 3 3 3 3 3
4 5 6 7 8 9 8 7 5 5 4 4 4 4 4 8 13 15 15 15 15 15 14 13 12 11 11 11 10 10 9 9 8 7 7 6 5 4 4 3 3 2 3 3
5 3 5 6 3 3 8 9 9 6 5 4 4 2 4 5 9 13 14 14 14 14 14 13 12 12 11 11 11 10 10 9 8 7 7 6 6 5 4 4 3 3 3 3
7 5 5 5 5 6 7 9 11 8 5 6 6 3 4 5 7 11 13 14 14 14 14 13 13 12 12 11 11 11 10 9 9 8 8 7 6 5 4 4 3 3 3 3
5 5 5 5 3 7 9 11 12 12 8 8 9 8 6 7 8 10 12 14 14 15 15 14 13 13 12 12 12 11 10 10 9 9 8 7 7 6 5 5 4 3 3 3
6 6 7 7 3 5 9 11 14 15 13 11 10 10 9 9 9 10 12 13 14 15 16 16 15 14 13 13 12 12 11 10 10 10 9 8 7 6 6 5 4 4 3 2
7 6 7 7 6 7 9 11 14 15 14 14 13 13 10 7 8 11 13 15 16 16 17 16 16 15 15 15 14 13 12 11 11 10 9 8 7 7 6 5 5 4 3 3
8 7 6 6 6 6 9 12 15 14 14 13 14 13 8 8 11 13 14 16 17 17 17 17 17 16 16 15 15 14 13 12 11 10 10 9 8 8 7 6 5 4 4 3
8 8 5 5 6 8 5 3 8 13 14 15 14 11 9 9 9 10 13 15 16 17 17 17 16 16 15 15 15 14 13 13 12 11 10 9 9 8 7 6 5 4 3 3
7 7 5 5 7 7 6 5 7 9 10 11 14 13 10 5 5 9 12 15 16 16 16 16 16 16 16 16 15 15 14 13 13 12 11 10 10 9 8 7 6 4 3 3
5 7 7 6 7 6 4 1 4 6 7 6 9 10 9 9 8 7 10 13 14 13 13 14 15 16 16 16 16 16 15 14 13 12 11 11 10 9 8 7 6 5 4 3
7 6 9 10 10 7 3 2 6 6 3 1 5 7 10 11 7 3 7 10 12 13 14 15 15 16 16 16 16 16 15 14 13 12 11 10 10 9 8 7 6 5 4 4
8 7 8 8 9 7 3 6 6 4 4 2 2 5 8 8 4 4 7 9 11 13 14 15 15 15 15 16 17 16 14 13 12 12 11 11 10 9 7 7 6 5 5 4
8 7 5 7 5 2 3 5 4 5 6 5 4 4 5 6 5 6 7 9 11 13 14 14 15 15 15 16 16 16 14 13 13 13 12 11 10 9 8 8 7 6 5 4
6 3 5 6 7 5 5 6 7 7 7 7 5 5 5 6 6 6 7 9 10 12 13 14 15 15 15 15 15 14 14 14 14 13 12 11 11 10 9 7 7 6 5 5
5 6 6 8 7 6 5 5 6 6 6 6 5 4 5 6 6 7 7 9 10 11 12 14 15 15 15 15 15 14 14 15 15 14 12 11 10 9 9 8 7 7 6 5
6 6 7 7 5 6 5 3 4 4 4 4 3 3 4 6 6 7 7 8 9 11 12 13 14 14 14 15 14 14 14 15 14 13 12 10 9 8 8 8 7 6 7 5
Wind_Direction
172 178 175 169 170 149 147 157 146 130 148 160 150 149 158 167 173 172 171 169 164 157 149 147 150 152 153 150 145 141 143 139 136 127 117 104 92 80 70 58 48 39 34 31
166 173 165 151 149 150 151 151 144 126 137 154 147 152 162 175 180 181 180 174 166 160 153 151 156 156 158 155 153 150 147 144 137 121 108 102 93 82 72 65 58 40 36 32
176 144 159 164 157 159 164 170 158 143 137 151 155 164 179 182 186 187 192 188 176 171 165 160 160 157 159 158 159 155 151 146 139 132 121 122 116 116 97 75 57 40 38 38
164 151 163 167 169 173 168 175 162 158 170 167 193 177 187 189 192 196 195 191 185 176 170 164 164 161 161 159 160 158 153 145 140 142 136 125 110 92 76 65 64 62 51 45
158 168 172 173 171 170 145 158 165 174 186 177 199 199 178 184 196 197 193 192 186 179 173 169 168 164 159 156 156 155 148 141 139 136 126 129 108 95 90 80 74 66 63 50
139 161 189 177 147 152 145 142 137 171 202 202 201 213 187 189 196 190 188 187 183 178 171 166 161 160 156 153 155 155 149 141 140 141 137 127 113 107 98 82 70 69 71 58
153 162 164 162 142 153 178 164 164 184 201 202 185 221 213 188 192 192 186 183 180 176 172 167 164 164 160 159 159 158 154 149 149 149 143 132 125 121 105 88 78 64 68 61
172 172 179 187 189 179 193 202 198 191 192 174 190 221 196 170 185 190 185 179 176 174 173 171 169 166 163 162 162 161 159 155 154 153 144 135 129 120 99 83 77 73 65 59
184 160 161 177 187 182 189 209 245 233 185 191 198 211 210 184 188 185 181 179 179 175 173 170 168 168 165 164 165 164 161 158 157 153 143 136 130 123 110 101 87 77 73 65
177 157 160 163 160 176 205 188 203 213 195 204 206 214 203 185 191 187 186 184 180 174 172 169 168 168 165 163 163 164 164 160 158 156 148 138 136 130 120 108 92 82 74 66
197 174 165 179 200 185 178 195 216 222 235 226 205 201 194 196 191 188 189 186 180 176 174 170 168 166 162 161 162 162 163 161 159 160 153 149 143 138 135 118 102 89 77 74
196 197 182 188 184 220 215 216 213 217 211 239 243 206 137 185 192 192 189 184 180 176 173 169 167 165 165 166 166 165 165 162 160 160 156 152 147 148 143 129 118 103 88 77
177 195 177 173 190 198 216 221 224 236 237 228 233 210 149 175 186 190 189 183 177 173 171 169 169 170 169 169 168 166 166 161 157 158 158 156 155 150 143 134 122 111 100 91
194 214 222 216 199 190 207 210 215 221 229 231 236 248 225 209 199 191 187 184 179 176 175 174 175 174 173 171 170 168 165 162 159 159 160 158 154 150 145 135 130 122 111 100
208 229 231 245 241 215 226 220 214 224 238 248 254 249 243 227 212 199 188 182 180 180 181 180 179 177 175 173 172 168 165 165 163 162 162 159 154 148 144 139 136 126 114 106
214 236 231 231 227 233 241 235 228 232 241 248 257 258 254 234 209 197 189 185 187 187 187 184 183 179 179 177 174 170 168 168 167 166 162 155 156 151 149 146 140 133 126 115
199 220 227 231 211 229 246 236 228 228 230 235 243 249 231 213 207 203 195 191 193 191 189 187 186 184 183 180 175 172 170 167 169 166 162 162 162 159 158 153 149 148 146 132
211 216 230 241 215 238 253 228 228 233 241 237 244 247 230 226 215 208 201 197 196 193 190 189 186 183 181 176 173 170 167 169 169 167 166 166 166 164 161 160 160 167 161 149
224 215 227 238 245 259 261 229 213 225 250 242 237 238 233 218 206 218 206 204 201 195 190 187 184 179 176 174 172 170 171 172 172 172 173 172 171 168 167 167 170 170 169 169
199 219 231 236 250 256 262 179 198 227 254 246 226 223 205 184 212 223 194 196 196 188 184 181 177 175 175 173 171 173 174 176 177 176 176 174 173 172 173 175 175 173 178 184
184 206 226 239 250 261 282 141 175 220 271 344 211 205 191 200 221 198 169 183 185 180 177 174 173 176 175 171 172 177 178 181 177 173 173 173 174 176 175 175 177 180 185 192
211 212 221 229 241 253 157 164 208 283 340 326 249 213 205 214 207 166 163 169 174 173 172 172 174 174 173 173 175 179 182 177 169 168 171 175 175 176 175 177 183 188 191 200
222 230 230 227 247 339 173 224 283 316 304 307 292 254 224 218 207 185 174 170 173 174 173 174 174 171 172 177 179 181 177 171 169 170 175 178 179 180 182 184 187 193 200 213
209 208 221 238 258 271 270 269 277 277 279 286 283 267 228 218 203 185 177 173 173 175 174 175 175 175 176 179 183 182 173 172 173 176 180 182 184 186 189 194 198 203 208 216
215 189 218 243 264 277 278 276 285 292 285 278 270 250 227 212 199 187 181 177 175 175 175 178 180 181 179 178 181 181 176 176 180 182 184 188 191 192 196 199 206 213 217 225
209 210 230 252 270 271 289 327 322 306 302 290 271 242 216 206 199 189 184 178 176 175 176 179 182 183 182 180 181 181 180 182 185 187 189 191 193 196 201 205 210 216 232 222
Height
1522 1522 1522 1522 1522 1522 1525 1528 1531 1534 1534 1535 1536 1538 1540 1543 1545 1547 1548 1550 1552 1555 1558 1559 1561 1562 1564 1566 1567 1567 1568 1568 1569 1569 1570 1570 1569 1569 1567 1566 1565 1563 1562 1561
1522 1522 1522 1522 1523 1524 1527 1531 1534 1535 1535 1535 1537 1539 1540 1542 1544 1546 1547 1549 1551 1554 1557 1559 1561 1562 1564 1566 1567 1568 1568 1569 1569 1569 1570 1570 1569 1569 1568 1567 1566 1565 1564 1562
1519 1522 1523 1523 1525 1527 1529 1531 1533 1535 1536 1536 1538 1541 1540 1541 1544 1546 1547 1549 1551 1553 1556 1558 1560 1562 1563 1565 1566 1568 1568 1569 1569 1570 1570 1570 1570 1570 1570 1569 1568 1566 1565 1564
1520 1522 1523 1524 1526 1526 1532 1530 1532 1534 1536 1539 1537 1545 1538 1537 1541 1543 1545 1547 1550 1552 1554 1557 1559 1561 1563 1564 1566 1567 1568 1569 1570 1570 1571 1572 1572 1572 1571 1570 1569 1568 1566 1565
1522 1523 1524 1526 1526 1527 1530 1531 1532 1534 1535 1538 1535 1538 1535 1533 1537 1538 1541 1545 1548 1550 1553 1555 1557 1559 1561 1563 1565 1567 1568 1569 1570 1571 1571 1572 1572 1572 1571 1571 1570 1569 1568 1567
1522 1524 1524 1525 1527 1529 1531 1533 1535 1536 1536 1544 1535 1535 1535 1528 1529 1532 1537 1542 1545 1548 1551 1553 1556 1558 1560 1562 1564 1566 1567 1568 1570 1570 1571 1572 1572 1572 1572 1571 1571 1570 1569 1568
1524 1524 1526 1526 1528 1531 1531 1535 1545 1549 1548 1542 1532 1534 1529 1521 1524 1528 1533 1538 1543 1546 1549 1552 1554 1556 1558 1561 1563 1565 1566 1568 1569 1570 1571 1572 1572 1572 1572 1572 1571 1571 1571 1570
1523 1528 1524 1524 1524 1528 1529 1530 1538 1546 1545 1538 1534 1532 1522 1522 1525 1529 1532 1536 1540 1544 1547 1550 1552 1554 1557 1559 1562 1564 1566 1567 1569 1570 1571 1572 1572 1572 1572 1572 1572 1571 1571 1570
1517 1523 1522 1523 1523 1523 1529 1529 1526 1528 1530 1534 1530 1524 1520 1522 1524 1527 1531 1535 1538 1541 1544 1547 1550 1553 1556 1558 1561 1563 1565 1567 1568 1570 1571 1572 1572 1572 1572 1572 1572 1571 1571 1570
1511 1520 1521 1523 1524 1526 1524 1524 1528 1529 1536 1537 1530 1524 1518 1518 1519 1523 1527 1531 1535 1539 1542 1545 1548 1551 1554 1557 1560 1562 1564 1566 1568 1569 1570 1571 1572 1572 1572 1572 1572 1572 1571 1570
1510 1516 1523 1523 1522 1522 1526 1527 1525 1523 1523 1529 1531 1521 1506 1508 1512 1517 1522 1527 1532 1536 1539 1543 1546 1549 1552 1555 1558 1561 1563 1565 1567 1568 1569 1570 1571 1571 1571 1571 1571 1571 1571 1570
1510 1513 1519 1519 1517 1517 1518 1518 1520 1526 1524 1521 1521 1517 1505 1508 1511 1515 1520 1525 1529 1534 1537 1541 1544 1547 1550 1554 1556 1559 1561 1563 1565 1567 1568 1569 1570 1570 1571 1571 1571 1571 1571 1570
1510 1512 1521 1525 1525 1521 1519 1517 1516 1516 1517 1519 1522 1516 1506 1507 1510 1514 1518 1523 1527 1531 1535 1538 1542 1545 1548 1551 1554 1557 1559 1561 1563 1565 1566 1568 1569 1569 1570 1570 1570 1570 1570 1570
1508 1508 1513 1519 1513 1511 1514 1515 1515 1515 1516 1514 1512 1508 1504 1505 1508 1512 1516 1520 1524 1528 1531 1535 1538 1542 1545 1549 1552 1555 1557 1559 1561 1563 1565 1566 1567 1568 1568 1569 1569 1569 1569 1569
1506 1505 1504 1504 1504 1506 1506 1507 1509 1510 1506 1507 1502 1501 1498 1500 1504 1509 1513 1518 1521 1525 1528 1531 1535 1539 1542 1545 1549 1552 1554 1557 1559 1561 1563 1564 1565 1566 1567 1567 1567 1568 1568 1568
1503 1503 1503 1505 1504 1505 1506 1503 1503 1504 1502 1501 1500 1498 1494 1498 1502 1506 1510 1513 1516 1520 1524 1527 1531 1535 1538 1542 1545 1549 1552 1554 1557 1559 1561 1562 1563 1564 1565 1566 1566 1566 1567 1567
1499 1500 1504 1504 1502 1505 1506 1496 1496 1497 1495 1496 1497 1493 1492 1496 1498 1501 1505 1508 1511 1514 1518 1522 1526 1530 1535 1539 1542 1545 1549 1552 1555 1557 1559 1560 1561 1562 1563 1564 1565 1565 1565 1565
1495 1496 1499 1501 1504 1514 1494 1485 1488 1490 1489 1489 1488 1488 1490 1493 1495 1498 1501 1503 1507 1511 1514 1518 1522 1527 1531 1536 1539 1543 1546 1549 1552 1554 1556 1558 1559 1560 1561 1562 1563 1563 1564 1564
1494 1496 1498 1499 1503 1498 1488 1485 1487 1488 1486 1482 1484 1486 1489 1492 1495 1496 1497 1499 1502 1506 1510 1514 1519 1523 1527 1531 1535 1539 1543 1546 1549 1551 1553 1555 1557 1558 1559 1560 1561 1561 1562 1562
1496 1495 1496 1499 1503 1502 1487 1482 1484 1487 1487 1479 1481 1483 1486 1490 1490 1489 1492 1495 1499 1503 1507 1511 1515 1520 1524 1528 1532 1536 1539 1542 1545 1548 1550 1552 1554 1555 1557 1558 1559 1559 1559 1559
1495 1496 1497 1496 1497 1489 1480 1483 1485 1491 1484 1478 1479 1481 1484 1485 1484 1487 1489 1491 1495 1498 1503 1507 1511 1515 1520 1524 1528 1532 1536 1539 1542 1545 1547 1549 1551 1553 1554 1555 1556 1556 1557 1557
1485 1490 1491 1491 1495 1491 1481 1483 1482 1479 1478 1479 1479 1480 1481 1483 1484 1485 1487 1489 1492 1495 1499 1503 1507 1512 1516 1520 1524 1528 1532 1536 1539 1541 1544 1546 1548 1550 1551 1552 1553 1554 1554 1554
1480 1480 1480 1482 1483 1480 1481 1481 1480 1480 1480 1479 1479 1480 1481 1481 1482 1484 1485 1487 1490 1492 1496 1500 1504 1508 1512 1516 1521 1524 1528 1532 1535 1538 1540 1543 1545 1546 1548 1549 1550 1551 1551 1552
1477 1481 1480 1480 1477 1479 1480 1479 1479 1479 1479 1478 1478 1478 1478 1480 1481 1482 1484 1485 1488 1490 1493 1497 1501 1504 1508 1513 1517 1521 1525 1528 1531 1534 1537 1539 1541 1543 1544 1545 1546 1547 1548 1548
1475 1479 1478 1476 1476 1477 1476 1477 1477 1476 1476 1476 1476 1476 1476 1478 1479 1480 1482 1483 1485 1488 1490 1494 1497 1501 1505 1509 1513 1517 1521 1524 1527 1530 1533 1535 1537 1539 1540 1541 1542 1543 1544 1544
1475 1476 1475 1474 1474 1475 1475 1475 1475 1474 1474 1474 1474 1474 1474 1476 1477 1479 1480 1481 1483 1485 1488 1491 1494 1498 1502 1505 1509 1513 1517 1520 1523 1526 1528 1531 1533 1534 1536 1537 1538 1538 1539 1539